Погода Алматы

Погода Алматы : погода сейчас, прогноз погоды и архив. Всё, что Вы хотите узнать о погоде Алматы!

Поиск расширенной информации на нашем сайте:

Другие новости

Новости СМИ2

Главная страница сайта

Новости сайта

03.07.2017

Напоминаем, что на нашем специализированном сайте Метеоцентр.Азия вы можете получить высокодетализированные автоматические прогнозы погоды по пунктам России, СНГ и мира в авиационном формате (включающие направление и скорость ветра, видимость, явления погоды, количество и форму облачности, нижнюю и верхнюю границу облачности).


Погода Алматы - сегодня

Время (UTC), дата Ветер
(°,м/с) 
Видим.   Явления Облачность Т
(°С)
Тd
(°С)
f(%) Тe
(°С)
Pmin
(гПа)
dP
(гПа)
Po
(мм)
O2
(г/м3)
Тmin Tmax R s Состояние
почвы
15 13.01.18 тихо ()   н/о  {ливн. осадки}  10/10 600 м кучево-дожд. 
[Cb cap]
-3.5 -7.6 73 -4  1023.8  1.1  691  283    -2.1      полностью
покрыта
пылью 
18 13.01.18 200 (Ю) н/о  слаб. ливневой снег{туман}  10/10 600 м кучево-дожд. 
[Cb cap]
-4.4 -5.6 91 -4  1026.3  1.9  692  284    -2.1  0.0     
21 13.01.18 тихо ()   н/о  ливневой снег  10/10 300 м кучево-дожд. 
[Cb cap]
-4.6 -5.9 91 -5  1027.4  0.9  693  284           
00 14.01.18 010 (С) 1{02}  н/о  ливневой снег  10/10 300 м кучево-дожд. 
[Cb cap]
-5.4 -6.8 90 -5  1028.7  0.9  693  286          покрыта
льдом 
03 14.01.18 тихо ()   4000 м  слаб. ливневой снег  10/10 300 м кучево-дожд. 
[Cb cap]
-5.6 -6.7 92 -6  1030  694  286        19  равномерный
сухой снег
100% 
06 14.01.18 тихо ()   10 км  {ливн. осадки}  10/3 600 м кучево-дожд., средняя, верхняя 
[Cb cap|Ac trans|Ci sp]
-3.3 -6.7 77 -3  1029  694  284  -5.8       
09 14.01.18 тихо ()   4000 м  дымка  10/10 600 м кучево-дожд. 
[Cb cap]
-3.7 -5.8 85 -4  1028.4  -0.6  694  284           
12 14.01.18 260 (З) 4000 м  дымка  10/10 600 м кучево-дожд. 
[Cb cap]
-4.4 -5.6 91 -4  1028.6  -0.1  694  285           
15 14.01.18 020 (С) н/о  дымка  10/10 600 м кучево-дожд. 
[Cb cap]
-4.8 -5.7 93 -4  1027.5  -1.1  693  285    -1.9  0.0     
18 14.01.18 тихо ()   н/о  дымка  10/0 средняя, верхняя 
[As trans|Ci fib]
-4.8 -5.4 96 -5  1026  -1.4  692  284    -0.1  0.0     
21 14.01.18 тихо ()   н/о  дымка  10/3 600 м кучево-дожд., средняя, верхняя 
[Cb cap|Ac trans|Ci sp]
-3.8 -5.9 85 -4  1022.6  -2.7  690  282           
00 15.01.18 тихо () {03}  н/о  дымка  10/10 200 м 
[St]
-5.2 -5.9 95 -5  1023.8  0.6  690  284           
03 15.01.18 тихо ()   0500 м  ливневой снег  10/10 300 м кучево-дожд. 
[Cb cap]
-2.2 -3.1 94 -2  1024.9  2.1  692  281        18  равномерный
сухой снег
100% 
06 15.01.18 тихо ()   0500 м  ливневой снег  10/10 300 м кучево-дожд. 
[Cb cap]
-2.1 -2.7 96 -2  1026.9  1.8  693  282  -0.6       
09 15.01.18 020 (С) 1000 м  ливневой снег  10/10 300 м кучево-дожд. 
[Cb cap]
-6.1 -7.9 87 -6  1029.1  0.4  693  286           
12 15.01.18 030 (СВ) 1000 м  слаб. ливневой снег  10/10 300 м кучево-дожд. 
[Cb cap]
-7.5 -9.2 88 -7  1031.1  1.3  694  288           
15 15.01.18 тихо ()   н/о  слаб. ливневой снег  10/10 300 м кучево-дожд. 
[Cb cap]
-8.7 -9.8 92 -9  1031.9  0.3  695  290    -0.4     
18 15.01.18 тихо ()   н/о  слаб. ливневой снег  10/10 300 м кучево-дожд. 
[Cb cap]
-9.3 -10.9 88 -9  1031.1  -1  694  290    -0     
21 15.01.18 тихо ()   н/о  {ливн. осадки}  10/10 600 м кучево-дожд. 
[Cb cap]
-10.7 -12.3 88 -11  1030.9  -0.7  693  292           
00 16.01.18 тихо () {03}  н/о  {ливн. осадки}  10/10 600 м кучево-дожд. 
[Cb cap]
-10.6 -12.2 88 -11  1030.5  -0.3  693  292           
03 16.01.18 тихо ()   10 км    10/10 600 м кучево-дожд. 
[Cb cap]
-9.5 -11.5 85 -10  1030.7  0.6  694  290        25  равномерный
сухой снег
100% 
06 16.01.18 тихо ()   10 км    10/10 600 м кучево-дожд. 
[Cb cap]
-8.6 -11.3 81 -9  1030.4  0.1  694  290  -10.9       
09 16.01.18 340 (С) 10 км    10/6 600 м кучево-дожд., средняя 
[Cb cap|Ac As]
-8.1 -11.6 76 -8  1028.9  -1.2  693  289           
12 16.01.18 тихо ()   10 км    10/0 средняя 
[Ac As]
-8.5 -11.2 81 -9  1029.5  0.4  693  289           
15 16.01.18 020 (С) н/о  {ливн. осадки}  10/8 600 м кучево-дожд., средняя 
[Cb cap|Ac As]
-9.5 -11.5 85 -9  1030.4  0.4  693  290    -7.2  0.0     
Время (UTC), дата Ветер
(°,м/с) 
Видим.   Явления Облачность Т
(°С)
Тd
(°С)
f(%) Тe
(°С)
Pmin
(гПа)
dP
(гПа)
Po
(мм)
O2
(г/м3)
Тmin Tmax R s Состояние
почвы

Для получения пояснительной информации подведите курсор к названию столбца.

ПОГОДА Алматы - архив

Всё, что Вы хотите узнать о погоде Алматы - удобно и подробно!

Выберите нужную дату (начиная с 1 января 2015* года) и нажмите кнопку "Найти".
Будут отображены архивные сводки погоды по пункту Алматы, начиная с указанной даты.


Отображать данные в формате CSV (для использования в таблицах Excel)


Внимание! Наш архив погоды предназначен исключительно для личного некоммерческого использования в познавательных целях. Если Вам необходимы официальные справки о состоянии погоды (для производственных, юридических, коммерческих и т.п. целей), обращайтесь в органы Росгидромета.

*Примечание: данная дата относится к архиву по метеостанциям СССР (Россия, СНГ, Балтия).
Архив по метеостанциям Зарубежной Европы и Азии (кроме Китая) хранится 10 дней, по другим регионам земного шара (Китай, Африка, Америка, Австралия, Океания) - 1 день.

Алматы - район местоположения метеостанции


Название, широта, долгота, высота метеостанции:
Алматы (город) 43.2°ш. 76.9°д. 851 м над ур. моря [Казахстан]

Дополнительная информация

В oтличие oт бoльшинства пoгoдных сайтoв мы публикуем пoдрoбную метеoинфoрмацию в детальнoм прoфессиoнальнoм фoрмате.

Характеристики температуры и влажнoсти вoздуха измеряются на высoте 2 м в тени вдали oт зданий и деревьев.
Скoрoсть ветра измеряется на высoте 10 м (на урoвне рoста челoвека скoрoсть ветра ниже в 1.5-2 раза). Если метеoстанция нахoдится в гoрoде или в лесу, тo скoрoсть ветра занижена на 2-4 м/с пo сравнению с oткрытым местoм. Скoрoсть ветра над акватoриями крупных рек и oзёр, а также на вершинах хoлмoв на 2-5 м/с выше, чем в oбычных услoвиях.
Атмoсфернoе давление в разных тoчках местнoсти мoжет значительнo oтличаться oт давления на метеoстанции, в зависимoсти oт услoвий рельефа (при пoдъёме на 10 м давление пoнижается примернo на 1 мм рт.ст.).